Location: Cella
(44.7333°N, 10.5667°E)
Time: 10:20:29
(UTC+00:00)

Cosmos 1777 Rocket - Pass Details

Date: 20 June 2021
Orbit: 757 x 776 km, 74.0° (Epoch: 28 July)

Event Time Altitude Azimuth Distance (km) Brightness Sun altitude
Rises 21:32:28 0° 347° (NNW) 3,260 8.8 -17.6°
Reaches altitude 10° 21:35:11 10° 359° (N) 2,331 7.5 -17.8°
Maximum altitude 21:39:44 28° 58° (ENE) 1,421 5.4 -18.1°
Enters shadow 21:42:42 17° 105° (ESE) 1,863 5.6 -18.3°
